Hot Springs, VA

6:40 PM EDT on September 25, 2016 (GMT -0400)
Ingalls

Weather History for KHSP - March, 2013

Change the Weather History Date:

Thursday, March 21, 2013

  Actual Average Record
Temperature  
Mean Temperature 18 °F -  
Max Temperature 24 °F 45 °F 68 °F (2011)
Min Temperature 12 °F 28 °F 12 °F (2013)
Degree Days  
Heating Degree Days 47    
Moisture  
Dew Point 9 °F    
Average Humidity 73    
Maximum Humidity 100    
Minimum Humidity 49    
Precipitation  
Precipitation 0.00 in - - ()
Sea Level Pressure  
Sea Level Pressure 29.69 in    
Wind  
Wind Speed 15 mph (WNW)    
Max Wind Speed 21 mph    
Max Gust Speed 30 mph    
Visibility 10 miles    
Events Snow    
Averages and records for this station are not official NWS values.
T = Trace of Precipitation, MM = Missing Value Source: NWS Daily Summary

Daily Weather History Graph

Daily Weather History Graph

Search for Another Location

Airport or City:

Trip Planner

Search our weather history database for the weather conditions in past years. The results will help you decide how hot, cold, wet, or windy it might be!

Date:

Astronomy

Mar. 21, 2013 Rise Set
Actual Time 7:20 AM EDT 7:32 PM EDT
Civil Twilight 6:54 AM EDT 7:58 PM EDT
Nautical Twilight 6:24 AM EDT 8:29 PM EDT
Astronomical Twilight 5:52 AM EDT 9:00 PM EDT
Moon 2:05 PM EDT (3/21) 3:36 AM EDT (3/21)
Length of Visible Light 13h 03m
Length of Day
12h 11m
Waxing Gibbous, 68% of the Moon is Illuminated
Mar 21
Waxing Gibbous
Mar 27
Full
Apr 3
Last Quarter
Apr 10
New
Apr 18
First Quarter

Hourly Weather History & Observations

Time (EDT) Temp. Windchill Dew Point Humidity Pressure Visibility Wind Dir Wind Speed Gust Speed Precip Events Conditions
12:15 AM 24.8 °F 11.1 °F 23.0 °F 93% 29.73 in 10.0 mi West 18.4 mph 25.3 mph N/A   Overcast
12:35 AM 24.8 °F 10.7 °F 23.0 °F 93% 29.71 in 3.0 mi WNW 19.6 mph 26.5 mph N/A Snow Light Snow
12:55 AM 23.0 °F 9.2 °F 23.0 °F 100% 29.71 in 10.0 mi WNW 17.3 mph - N/A   Overcast
1:35 AM 23.0 °F 10.6 °F 21.2 °F 93% 29.70 in 7.0 mi WNW 13.8 mph - N/A Snow Light Snow
2:15 AM 21.2 °F 8.9 °F 19.4 °F 93% 29.69 in 10.0 mi NW 12.7 mph 18.4 mph N/A   Overcast
2:35 AM 21.2 °F 7.8 °F 17.6 °F 86% 29.69 in 10.0 mi NW 15.0 mph - N/A   Overcast
2:55 AM 19.4 °F 8.6 °F 15.8 °F 86% 29.68 in 10.0 mi NW 9.2 mph 16.1 mph N/A   Mostly Cloudy
3:15 AM 19.4 °F 6.0 °F 14.0 °F 80% 29.68 in 10.0 mi NW 13.8 mph 18.4 mph N/A   Scattered Clouds
3:35 AM 17.6 °F 2.7 °F 14.0 °F 86% 29.67 in 10.0 mi NW 16.1 mph 19.6 mph N/A   Mostly Cloudy
3:55 AM 17.6 °F 5.0 °F 14.0 °F 86% 29.66 in 10.0 mi NW 11.5 mph 17.3 mph N/A   Scattered Clouds
4:15 AM 17.6 °F 6.4 °F 12.2 °F 79% 29.65 in 10.0 mi NW 9.2 mph 17.3 mph N/A   Mostly Cloudy
4:35 AM 17.6 °F 7.3 °F 14.0 °F 86% 29.65 in 10.0 mi WNW 8.1 mph 17.3 mph N/A   Mostly Cloudy
4:55 AM 17.6 °F 6.4 °F 12.2 °F 79% 29.65 in 10.0 mi WNW 9.2 mph 17.3 mph N/A   Overcast
5:15 AM 17.6 °F 5.0 °F 12.2 °F 79% 29.65 in 10.0 mi WNW 11.5 mph 19.6 mph N/A   Overcast
5:35 AM 15.8 °F 3.4 °F 12.2 °F 86% 29.64 in 10.0 mi WNW 10.4 mph 18.4 mph N/A   Mostly Cloudy
5:55 AM 15.8 °F 0.3 °F 10.4 °F 79% 29.64 in 10.0 mi WNW 16.1 mph 24.2 mph N/A   Scattered Clouds
6:15 AM 15.8 °F 1.4 °F 8.6 °F 73% 29.63 in 10.0 mi WNW 13.8 mph 28.8 mph N/A   Scattered Clouds
6:35 AM 14.0 °F -2.0 °F 8.6 °F 79% 29.63 in 10.0 mi WNW 16.1 mph 23.0 mph N/A   Scattered Clouds
6:55 AM 14.0 °F -0.2 °F 8.6 °F 79% 29.64 in 10.0 mi WNW 12.7 mph 24.2 mph N/A   Clear
7:15 AM 14.0 °F 2.0 °F 8.6 °F 79% 29.65 in 10.0 mi NW 9.2 mph 20.7 mph N/A   Scattered Clouds
7:35 AM 12.2 °F -1.8 °F 8.6 °F 85% 29.65 in 10.0 mi NW 11.5 mph 17.3 mph N/A   Mostly Cloudy
7:55 AM 12.2 °F -3.1 °F 6.8 °F 79% 29.65 in 10.0 mi NW 13.8 mph 19.6 mph N/A   Overcast
8:15 AM 12.2 °F -1.0 °F 6.8 °F 79% 29.66 in 10.0 mi WNW 10.4 mph - N/A   Mostly Cloudy
8:55 AM 12.2 °F -3.1 °F 3.2 °F 67% 29.65 in 10.0 mi WNW 13.8 mph 24.2 mph N/A   Scattered Clouds
9:15 AM 12.2 °F -5.8 °F 3.2 °F 67% 29.66 in 10.0 mi WNW 19.6 mph 27.6 mph N/A   Clear
9:35 AM 14.0 °F 0.5 °F 3.2 °F 62% 29.66 in 10.0 mi WNW 11.5 mph 26.5 mph N/A   Scattered Clouds
9:55 AM 14.0 °F 2.9 °F 3.2 °F 62% 29.67 in 10.0 mi WNW 8.1 mph 21.9 mph N/A   Mostly Cloudy
10:15 AM 14.0 °F -0.8 °F 3.2 °F 62% 29.67 in 10.0 mi WNW 13.8 mph 20.7 mph N/A   Mostly Cloudy
10:35 AM 14.0 °F -0.2 °F 3.2 °F 62% 29.68 in 10.0 mi NW 12.7 mph 21.9 mph N/A   Mostly Cloudy
11:15 AM 14.0 °F 2.0 °F 3.2 °F 62% 29.67 in 10.0 mi WNW 9.2 mph 20.7 mph N/A   Mostly Cloudy
11:35 AM 15.8 °F 1.4 °F 5.0 °F 62% 29.67 in 10.0 mi WNW 13.8 mph 23.0 mph N/A   Mostly Cloudy
11:55 AM 15.8 °F 2.1 °F 6.8 °F 68% 29.66 in 10.0 mi WNW 12.7 mph 23.0 mph N/A   Mostly Cloudy
12:15 PM 15.8 °F 0.3 °F 5.0 °F 62% 29.66 in 10.0 mi West 16.1 mph 26.5 mph N/A   Mostly Cloudy
12:35 PM 17.6 °F 2.7 °F 5.0 °F 58% 29.66 in 10.0 mi WNW 16.1 mph 25.3 mph N/A   Overcast
12:55 PM 17.6 °F 2.2 °F 6.8 °F 63% 29.66 in 10.0 mi NW 17.3 mph 24.2 mph N/A   Mostly Cloudy
1:15 PM 17.6 °F 1.7 °F 5.0 °F 58% 29.66 in 10.0 mi WNW 18.4 mph 26.5 mph N/A   Mostly Cloudy
1:35 PM 19.4 °F 3.6 °F 5.0 °F 54% 29.66 in 10.0 mi West 19.6 mph 26.5 mph N/A   Mostly Cloudy
1:55 PM 19.4 °F 6.6 °F 5.0 °F 54% 29.66 in 10.0 mi WNW 12.7 mph 24.2 mph N/A   Mostly Cloudy
2:15 PM 17.6 °F 1.7 °F 6.8 °F 63% 29.66 in 10.0 mi West 18.4 mph 26.5 mph N/A   Overcast
2:35 PM 19.4 °F 5.5 °F 5.0 °F 54% 29.65 in 10.0 mi West 15.0 mph 23.0 mph N/A   Overcast
2:55 PM 19.4 °F 3.2 °F 6.8 °F 58% 29.65 in 10.0 mi West 20.7 mph 28.8 mph N/A   Overcast
3:15 PM 19.4 °F 3.6 °F 5.0 °F 54% 29.64 in 10.0 mi WNW 19.6 mph 26.5 mph N/A   Overcast
3:35 PM 19.4 °F 11.5 °F 3.2 °F 49% 29.65 in 10.0 mi WNW 5.8 mph 21.9 mph N/A   Overcast
3:55 PM 17.6 °F 1.7 °F 8.6 °F 68% 29.67 in 10.0 mi WNW 18.4 mph 27.6 mph N/A   Overcast
4:15 PM 19.4 °F 6.0 °F 6.8 °F 58% 29.67 in 10.0 mi WNW 13.8 mph 28.8 mph N/A   Overcast
4:35 PM 17.6 °F 1.3 °F 5.0 °F 58% 29.67 in 10.0 mi WNW 19.6 mph 29.9 mph N/A   Overcast
4:55 PM 17.6 °F 0.9 °F 6.8 °F 63% 29.68 in 10.0 mi West 20.7 mph 28.8 mph N/A   Overcast
5:15 PM 17.6 °F 1.3 °F 6.8 °F 63% 29.69 in 10.0 mi West 19.6 mph 25.3 mph N/A   Mostly Cloudy
5:35 PM 17.6 °F 2.2 °F 6.8 °F 63% 29.69 in 10.0 mi West 17.3 mph 29.9 mph N/A   Mostly Cloudy
5:55 PM 15.8 °F 0.9 °F 6.8 °F 68% 29.70 in 10.0 mi NW 15.0 mph 25.3 mph N/A   Overcast
6:15 PM 17.6 °F 1.7 °F 6.8 °F 63% 29.70 in 10.0 mi WNW 18.4 mph 24.2 mph N/A   Mostly Cloudy
6:35 PM 15.8 °F 2.7 °F 6.8 °F 68% 29.71 in 10.0 mi WNW 11.5 mph 27.6 mph N/A   Mostly Cloudy
6:55 PM 15.8 °F -1.1 °F 6.8 °F 68% 29.72 in 10.0 mi WNW 19.6 mph 28.8 mph N/A   Overcast
7:15 PM 15.8 °F -1.1 °F 6.8 °F 68% 29.72 in 10.0 mi WNW 19.6 mph 28.8 mph N/A   Mostly Cloudy
7:35 PM 14.0 °F -0.8 °F 8.6 °F 79% 29.73 in 10.0 mi WNW 13.8 mph 20.7 mph N/A   Mostly Cloudy
7:55 PM 14.0 °F 0.5 °F 8.6 °F 79% 29.75 in 10.0 mi WNW 11.5 mph 26.5 mph N/A   Scattered Clouds
8:15 PM 14.0 °F -0.2 °F 6.8 °F 73% 29.75 in 10.0 mi WNW 12.7 mph 23.0 mph N/A   Mostly Cloudy
8:35 PM 12.2 °F -3.7 °F 6.8 °F 79% 29.75 in 10.0 mi WNW 15.0 mph 21.9 mph N/A   Mostly Cloudy
8:55 PM 12.2 °F -4.3 °F 6.8 °F 79% 29.76 in 10.0 mi WNW 16.1 mph 24.2 mph N/A   Mostly Cloudy
9:15 PM 12.2 °F -4.8 °F 6.8 °F 79% 29.76 in 10.0 mi WNW 17.3 mph 27.6 mph N/A   Mostly Cloudy
9:35 PM 12.2 °F -2.5 °F 6.8 °F 79% 29.77 in 10.0 mi WNW 12.7 mph 26.5 mph N/A   Scattered Clouds
9:55 PM 12.2 °F -3.1 °F 6.8 °F 79% 29.77 in 10.0 mi WNW 13.8 mph 24.2 mph N/A   Scattered Clouds
10:15 PM 12.2 °F -4.8 °F 6.8 °F 79% 29.78 in 10.0 mi WNW 17.3 mph 23.0 mph N/A   Scattered Clouds
10:35 PM 12.2 °F -2.5 °F 6.8 °F 79% 29.79 in 10.0 mi WNW 12.7 mph 20.7 mph N/A   Scattered Clouds
10:55 PM 12.2 °F -4.8 °F 6.8 °F 79% 29.79 in 10.0 mi WNW 17.3 mph 26.5 mph N/A   Clear
11:15 PM 12.2 °F -4.3 °F 6.8 °F 79% 29.79 in 10.0 mi WNW 16.1 mph 27.6 mph N/A   Clear
11:35 PM 12.2 °F -5.3 °F 6.8 °F 79% 29.79 in 10.0 mi WNW 18.4 mph 26.5 mph N/A   Clear
11:55 PM 12.2 °F -3.7 °F 6.8 °F 79% 29.79 in 10.0 mi WNW 15.0 mph 26.5 mph N/A   Clear